Location: Trout Lake
(45.9980°N, 121.5270°W)
Time: 20:45:26
(UTC-08:00)

Radarsat Rocket - Pass Details

Date: 06 December 2023
Orbit: 933 x 1491 km, 100.6° (Epoch: 22 February)

Event Time Altitude Azimuth Distance (km) Brightness Sun altitude
Rises 17:59:24 0° 155° (SSE) 3,576 6.9 -16.4°
Reaches altitude 10° 18:01:46 10° 153° (SSE) 2,635 6.1 -16.8°
Maximum altitude 18:07:33 74° 70° (ENE) 995 3.8 -17.7°
Drops below altitude 10° 18:13:41 10° 346° (NNW) 2,799 6.4 -18.8°
Sets 18:16:17 0° 345° (NNW) 3,815 7.1 -19.2°
